Wheeler AAF, HI

4:40 PM HST on August 16, 2017 (GMT -1000)
Wheeler Army Air Field

Weather History for PHHI - November, 2011

Change the Weather History Date:

Friday, November 11, 2011

  Actual Average Record
Temperature  
Mean Temperature 70 °F -  
Max Temperature 75 °F 76 °F 81 °F (2006)
Min Temperature 66 °F 65 °F 61 °F (2014)
Cooling Degree Days 6    
Growing Degree Days 20 (Base 50)    
Moisture  
Dew Point 64 °F    
Average Humidity 84    
Maximum Humidity 100    
Minimum Humidity 57    
Precipitation  
Precipitation 0.06 in - - ()
Sea Level Pressure  
Sea Level Pressure 30.08 in    
Wind  
Wind Speed 6 mph (ENE)    
Max Wind Speed 16 mph    
Max Gust Speed 24 mph    
Visibility 10 miles    
Events Rain    
Averages and records for this station are not official NWS values.
T = Trace of Precipitation, MM = Missing Value Source: NWS Daily Summary

Daily Weather History Graph

Daily Weather History Graph

Search for Another Location

Airport or City:

Trip Planner

Search our weather history database for the weather conditions in past years. The results will help you decide how hot, cold, wet, or windy it might be!

Date:

Astronomy

Nov. 11, 2011 Rise Set
Actual Time 6:40 AM HST 5:51 PM HST
Civil Twilight 6:17 AM HST 6:14 PM HST
Nautical Twilight 5:50 AM HST 6:41 PM HST
Astronomical Twilight 5:24 AM HST 7:07 PM HST
Moon 6:40 PM HST (11/11) 7:28 AM HST (11/11)
Length of Visible Light 11h 57m
Length of Day
11h 10m
Full, 99% of the Moon is Illuminated
Nov 11
Full
Nov 18
Last Quarter
Nov 24
New
Dec 1
First Quarter
Dec 10
Full

Hourly Weather History & Observations

Time (HST) Temp. Dew Point Humidity Pressure Visibility Wind Dir Wind Speed Gust Speed Precip Events Conditions
12:45 AM 68.0 °F 64.4 °F 88% 30.08 in 9.0 mi NNE 3.5 mph - N/A Rain Light Rain
12:52 AM 68.0 °F 62.6 °F 83% 30.07 in 5.0 mi NNE 10.4 mph - N/A Rain Rain
12:55 AM 67.6 °F 63.7 °F 87% 30.08 in 5.0 mi Variable 4.6 mph - 0.02 in Rain Rain
1:00 AM 68.0 °F 64.4 °F 88% 30.07 in 8.0 mi Variable 3.5 mph - N/A Rain Light Rain
1:04 AM 68.0 °F 64.4 °F 88% 30.07 in 10.0 mi Calm Calm - N/A   Mostly Cloudy
1:08 AM 68.0 °F 64.4 °F 88% 30.07 in 10.0 mi Calm Calm - N/A   Light Drizzle
1:10 AM 68.0 °F 64.4 °F 88% 30.07 in 10.0 mi Calm Calm - N/A   Light Drizzle
1:17 AM 68.0 °F 64.4 °F 88% 30.07 in 8.0 mi East 4.6 mph - N/A   Light Drizzle
1:19 AM 68.0 °F 64.4 °F 88% 30.07 in 8.0 mi ENE 3.5 mph - N/A   Light Drizzle
1:25 AM 68.0 °F 64.4 °F 88% 30.07 in 10.0 mi ENE 3.5 mph - N/A   Scattered Clouds
1:40 AM 68.0 °F 64.4 °F 88% 30.06 in 10.0 mi East 6.9 mph - N/A   Light Drizzle
1:55 AM 68.2 °F 64.4 °F 88% 30.06 in 9.0 mi ESE 10.4 mph - 0.01 in   Light Drizzle
2:11 AM 68.0 °F 64.4 °F 88% 30.05 in 10.0 mi East 9.2 mph - N/A   Partly Cloudy
2:49 AM 68.0 °F 64.4 °F 88% 30.05 in 10.0 mi East 8.1 mph - N/A   Light Drizzle
2:55 AM 68.0 °F 65.1 °F 90% 30.05 in 10.0 mi NE 6.9 mph - 0.00 in   Light Drizzle
3:03 AM 68.0 °F 64.4 °F 88% 30.05 in 10.0 mi ENE 5.8 mph - N/A   Partly Cloudy
3:08 AM 68.0 °F 64.4 °F 88% 30.05 in 10.0 mi ENE 5.8 mph - N/A   Light Drizzle
3:17 AM 68.0 °F 64.4 °F 88% 30.05 in 10.0 mi East 11.5 mph 16.1 mph N/A   Partly Cloudy
3:22 AM 68.0 °F 64.4 °F 88% 30.05 in 10.0 mi ENE 6.9 mph 16.1 mph N/A   Light Drizzle
3:39 AM 68.0 °F 64.4 °F 88% 30.04 in 10.0 mi East 11.5 mph - N/A   Partly Cloudy
3:44 AM 68.0 °F 64.4 °F 88% 30.05 in 10.0 mi East 10.4 mph - N/A   Light Drizzle
3:55 AM 68.4 °F 64.4 °F 87% 30.04 in 10.0 mi East 15.0 mph - 0.00 in   Light Drizzle
3:57 AM 68.0 °F 64.4 °F 88% 30.04 in 10.0 mi East 13.8 mph - N/A   Scattered Clouds
4:16 AM 68.0 °F 64.4 °F 88% 30.05 in 7.0 mi East 9.2 mph - N/A Rain Light Rain
4:19 AM 68.0 °F 64.4 °F 88% 30.05 in 6.0 mi East 8.1 mph - N/A Rain Light Rain
4:20 AM 68.0 °F 64.4 °F 88% 30.05 in 6.0 mi East 8.1 mph - N/A Rain Light Rain
4:27 AM 68.0 °F 64.4 °F 88% 30.05 in 6.0 mi East 5.8 mph - N/A Rain Light Rain
4:47 AM 68.0 °F 64.4 °F 88% 30.06 in 10.0 mi East 3.5 mph - N/A   Mostly Cloudy
4:55 AM 67.6 °F 65.3 °F 92% 30.05 in 10.0 mi NE 4.6 mph - 0.01 in   Light Drizzle
5:01 AM 68.0 °F 64.4 °F 88% 30.06 in 10.0 mi Calm Calm - N/A   Light Drizzle
5:04 AM 68.0 °F 64.4 °F 88% 30.06 in 10.0 mi Calm Calm - N/A   Scattered Clouds
5:12 AM 68.0 °F 64.4 °F 88% 30.06 in 9.0 mi East 3.5 mph - N/A   Drizzle
5:17 AM 68.0 °F 64.4 °F 88% 30.06 in 6.0 mi NE 4.6 mph - N/A   Drizzle
5:45 AM 66.2 °F 66.2 °F 100% 30.07 in 8.0 mi Calm Calm - N/A   Light Drizzle
5:50 AM 66.2 °F 66.2 °F 100% 30.07 in 10.0 mi Calm Calm - N/A   Mostly Cloudy
5:55 AM 66.4 °F 65.1 °F 96% 30.07 in 10.0 mi Calm Calm - 0.01 in   Mostly Cloudy
5:58 AM 66.2 °F 64.4 °F 94% 30.07 in 10.0 mi Calm Calm - N/A   Mostly Cloudy
5:59 AM 66.2 °F 64.4 °F 94% 30.07 in 10.0 mi WNW 3.5 mph - N/A   Light Drizzle
6:12 AM 68.0 °F 64.4 °F 88% 30.08 in 7.0 mi Variable 5.8 mph - N/A Rain Light Rain
6:15 AM 68.0 °F 64.4 °F 88% 30.08 in 8.0 mi Calm Calm - N/A   Light Drizzle
6:21 AM 68.0 °F 64.4 °F 88% 30.08 in 10.0 mi Variable 4.6 mph - N/A   Mostly Cloudy
6:27 AM 68.0 °F 64.4 °F 88% 30.08 in 10.0 mi ENE 5.8 mph - N/A   Mostly Cloudy
6:44 AM 68.0 °F 64.4 °F 88% 30.08 in 9.0 mi East 6.9 mph - N/A   Light Drizzle
6:54 AM 68.0 °F 64.4 °F 88% 30.08 in 10.0 mi ENE 5.8 mph - N/A   Partly Cloudy
6:55 AM 67.5 °F 64.4 °F 90% 30.08 in 10.0 mi ENE 5.8 mph - 0.01 in   Partly Cloudy
7:48 AM 68.0 °F 66.2 °F 94% 30.10 in 10.0 mi Calm Calm - N/A   Light Drizzle
7:54 AM 68.0 °F 64.4 °F 88% 30.10 in 10.0 mi ESE 4.6 mph - N/A   Light Drizzle
7:55 AM 68.2 °F 64.6 °F 88% 30.10 in 10.0 mi East 3.5 mph - 0.00 in   Light Drizzle
7:59 AM 68.0 °F 64.4 °F 88% 30.10 in 10.0 mi East 3.5 mph - N/A   Light Drizzle
8:03 AM 68.0 °F 64.4 °F 88% 30.10 in 10.0 mi East 3.5 mph - N/A   Scattered Clouds
8:14 AM 69.8 °F 64.4 °F 83% 30.10 in 10.0 mi East 4.6 mph - N/A   Mostly Cloudy
8:18 AM 69.8 °F 64.4 °F 83% 30.10 in 10.0 mi Variable 5.8 mph - N/A   Scattered Clouds
8:47 AM 69.8 °F 64.4 °F 83% 30.11 in 10.0 mi East 5.8 mph - N/A   Drizzle
8:48 AM 69.8 °F 64.4 °F 83% 30.11 in 10.0 mi East 5.8 mph - N/A   Light Drizzle
8:55 AM 69.4 °F 65.3 °F 87% 30.11 in 10.0 mi East 4.6 mph - 0.00 in   Light Drizzle
8:58 AM 69.8 °F 66.2 °F 88% 30.11 in 10.0 mi East 5.8 mph - N/A   Mostly Cloudy
9:03 AM 69.8 °F 66.2 °F 88% 30.11 in 10.0 mi East 4.6 mph - N/A   Light Drizzle
9:04 AM 69.8 °F 66.2 °F 88% 30.11 in 10.0 mi Variable 5.8 mph - N/A   Light Drizzle
9:06 AM 69.8 °F 66.2 °F 88% 30.11 in 10.0 mi NNE 4.6 mph - N/A   Light Drizzle
9:07 AM 69.8 °F 66.2 °F 88% 30.11 in 10.0 mi Variable 3.5 mph - N/A   Light Drizzle
9:15 AM 69.8 °F 66.2 °F 88% 30.11 in 10.0 mi Variable 3.5 mph - N/A   Light Drizzle
9:18 AM 69.8 °F 66.2 °F 88% 30.12 in 10.0 mi ESE 3.5 mph - N/A   Mostly Cloudy
9:19 AM 69.8 °F 66.2 °F 88% 30.12 in 10.0 mi ESE 3.5 mph - N/A   Mostly Cloudy
9:29 AM 71.6 °F 66.2 °F 83% 30.12 in 10.0 mi Variable 3.5 mph - N/A   Mostly Cloudy
9:30 AM 71.6 °F 66.2 °F 83% 30.12 in 10.0 mi ENE 5.8 mph - N/A   Mostly Cloudy
9:36 AM 71.6 °F 64.4 °F 78% 30.11 in 10.0 mi East 6.9 mph - N/A   Mostly Cloudy
9:47 AM 71.6 °F 64.4 °F 78% 30.12 in 10.0 mi East 6.9 mph - N/A   Mostly Cloudy
9:49 AM 71.6 °F 66.2 °F 83% 30.12 in 10.0 mi ENE 5.8 mph - N/A   Mostly Cloudy
9:53 AM 71.6 °F 66.2 °F 83% 30.12 in 10.0 mi ENE 6.9 mph - N/A   Mostly Cloudy
9:55 AM 70.9 °F 64.9 °F 81% 30.12 in 10.0 mi ENE 5.8 mph - 0.00 in   Mostly Cloudy
10:01 AM 71.6 °F 64.4 °F 78% 30.12 in 10.0 mi ENE 9.2 mph - N/A   Mostly Cloudy
10:03 AM 71.6 °F 64.4 °F 78% 30.12 in 10.0 mi ENE 9.2 mph - N/A   Mostly Cloudy
10:07 AM 71.6 °F 64.4 °F 78% 30.12 in 10.0 mi NE 9.2 mph - N/A   Mostly Cloudy
10:08 AM 71.6 °F 64.4 °F 78% 30.12 in 10.0 mi NE 10.4 mph - N/A   Overcast
10:12 AM 71.6 °F 64.4 °F 78% 30.12 in 10.0 mi NE 5.8 mph - N/A   Mostly Cloudy
10:17 AM 71.6 °F 64.4 °F 78% 30.12 in 10.0 mi NE 8.1 mph - N/A   Mostly Cloudy
10:19 AM 71.6 °F 64.4 °F 78% 30.12 in 10.0 mi NE 5.8 mph - N/A   Mostly Cloudy
10:33 AM 71.6 °F 64.4 °F 78% 30.11 in 10.0 mi ENE 15.0 mph - N/A   Mostly Cloudy
10:34 AM 71.6 °F 62.6 °F 73% 30.11 in 10.0 mi ENE 16.1 mph - N/A   Mostly Cloudy
10:36 AM 71.6 °F 62.6 °F 73% 30.11 in 10.0 mi ENE 12.7 mph - N/A   Mostly Cloudy
10:55 AM 72.0 °F 63.5 °F 75% 30.10 in 10.0 mi NE 10.4 mph - N/A   Mostly Cloudy
11:55 AM 74.7 °F 63.3 °F 68% 30.08 in 10.0 mi NE 13.8 mph - N/A   Partly Cloudy
12:55 PM 75.2 °F 60.8 °F 61% 30.05 in 10.0 mi NE 16.1 mph 20.7 mph N/A   Partly Cloudy
1:55 PM 75.9 °F 59.5 °F 57% 30.03 in 10.0 mi ENE 16.1 mph 24.2 mph N/A   Partly Cloudy
2:55 PM 75.7 °F 60.3 °F 59% 30.02 in 10.0 mi ENE 13.8 mph 21.9 mph N/A   Clear
3:55 PM 75.0 °F 59.9 °F 59% 30.02 in 10.0 mi East 11.5 mph 17.3 mph N/A   Clear
4:55 PM 73.6 °F 61.0 °F 65% 30.03 in 10.0 mi East 9.2 mph - N/A   Partly Cloudy
5:55 PM 71.4 °F 61.3 °F 70% 30.03 in 10.0 mi ENE 4.6 mph - N/A   Partly Cloudy
6:55 PM 70.7 °F 61.7 °F 73% 30.04 in 10.0 mi Variable 3.5 mph - N/A   Partly Cloudy
7:55 PM 70.3 °F 61.5 °F 74% 30.06 in 10.0 mi Variable 3.5 mph - N/A   Clear
8:55 PM 70.2 °F 62.1 °F 75% 30.07 in 10.0 mi East 8.1 mph - N/A   Scattered Clouds
9:40 PM 69.8 °F 62.6 °F 78% 30.07 in 10.0 mi Calm Calm - N/A   Mostly Cloudy
9:55 PM 69.8 °F 62.6 °F 78% 30.07 in 10.0 mi Variable 4.6 mph - N/A   Mostly Cloudy
10:06 PM 68.0 °F 62.6 °F 83% 30.07 in 10.0 mi Variable 4.6 mph - N/A   Scattered Clouds
10:09 PM 69.8 °F 62.6 °F 78% 30.07 in 10.0 mi ENE 4.6 mph - N/A   Mostly Cloudy
10:19 PM 69.8 °F 62.6 °F 78% 30.08 in 10.0 mi Calm Calm - N/A   Scattered Clouds
10:55 PM 68.4 °F 62.1 °F 80% 30.08 in 10.0 mi Calm Calm - N/A   Partly Cloudy
11:55 PM 69.1 °F 62.2 °F 79% 30.07 in 10.0 mi Calm Calm - N/A   Scattered Clouds